Simultaneous Nadir Overpasses (SNOs) Predictions

Prediction of SNOs between AURA and NPP Satellite Orbit:

Table of predicted SNOs for the next 14.0 days since TLE Epoch: 3/15/2013
Index Date (AURA) Time (AURA) Lat,Lon (AURA) SZA (AURA ) Date (NPP) Time (NPP) Lat,Lon (NPP) SZA (NPP ) Distance(km) Time Diff (sec)
1 03/16/2013 04:31:41 79.78, 11.15 93.98 03/16/2013 04:31:07 79.79, 11.26 93.99 2.44 34
2 03/16/2013 05:21:04 -79.93, 179.94 86.26 03/16/2013 05:21:48 -79.93, 179.91 86.29 0.60 44
3 03/18/2013 20:48:06 79.83, 127.39 92.84 03/18/2013 20:48:03 79.82, 127.33 92.85 1.44 3
4 03/18/2013 21:37:17 -80.37, -60.21 88.08 03/18/2013 21:38:31 -80.31, -60.02 88.15 7.16 74
5 03/21/2013 12:15:10 -79.72, 74.82 88.07 03/21/2013 12:14:20 -79.72, 74.81 88.03 0.28 50
6 03/21/2013
